Weather History for KMQY - December, 2013

Change the Weather History Date:

Tuesday, December 31, 2013

  Actual Average Record
Temperature  
Mean Temperature 32 °F -  
Max Temperature 43 °F 44 °F 70 °F (2010)
Min Temperature 20 °F 32 °F 17 °F (2001)
Degree Days  
Heating Degree Days 34    
Moisture  
Dew Point 23 °F    
Average Humidity 81    
Maximum Humidity 100    
Minimum Humidity 49    
Precipitation  
Precipitation 0.00 in - - ()
Sea Level Pressure  
Sea Level Pressure 30.44 in    
Wind  
Wind Speed 0 mph (NE)    
Max Wind Speed 4 mph    
Max Gust Speed -    
Visibility 9 miles    
Events      
Averages and records for this station are not official NWS values.
T = Trace of Precipitation, MM = Missing Value Source: NWS Daily Summary

Daily Weather History Graph

Daily Weather History Graph

Search for Another Location

Airport or City:

Trip Planner

Search our weather history database for the weather conditions in past years. The results will help you decide how hot, cold, wet, or windy it might be!

Date:

Astronomy

Dec. 31, 2013 Rise Set
Actual Time 6:56 AM CST 4:42 PM CST
Civil Twilight 6:28 AM CST 5:10 PM CST
Nautical Twilight 5:56 AM CST 5:42 PM CST
Astronomical Twilight 5:24 AM CST 6:13 PM CST
Moon 5:50 AM CST (12/31) 4:16 PM CST (12/31)
Length of Visible Light 10h 42m
Length of Day
9h 45m
Waning Crescent, 1% of the Moon is Illuminated
Dec 31
Waning Crescent
Jan 1
New
Jan 7
First Quarter
Jan 15
Full
Jan 23
Last Quarter

Hourly Weather History & Observations

Time (CST) Temp. Windchill Dew Point Humidity Pressure Visibility Wind Dir Wind Speed Gust Speed Precip Events Conditions
12:56 AM 22.1 °F - 21.0 °F 96% 30.37 in 9.0 mi Calm Calm - N/A   Clear
1:56 AM 23.0 °F - 22.1 °F 96% 30.38 in 7.0 mi Calm Calm - N/A   Clear
2:56 AM 22.1 °F - 21.0 °F 96% 30.39 in 7.0 mi Calm Calm - N/A   Clear
3:56 AM 21.0 °F - 20.1 °F 96% 30.40 in 7.0 mi Calm Calm - N/A   Clear
4:56 AM 22.1 °F - 22.1 °F 100% 30.41 in 9.0 mi Calm Calm - N/A   Clear
5:56 AM 20.1 °F - 19.0 °F 96% 30.45 in 5.0 mi Calm Calm - N/A   Clear
6:56 AM 20.1 °F - 19.0 °F 96% 30.48 in 6.0 mi Calm Calm - N/A   Clear
7:56 AM 20.1 °F - 19.0 °F 96% 30.49 in 8.0 mi Calm Calm - N/A   Clear
8:56 AM 27.1 °F - 23.0 °F 84% 30.53 in 10.0 mi Calm Calm - N/A   Clear
9:56 AM 31.1 °F - 23.0 °F 72% 30.53 in 10.0 mi Calm Calm - N/A   Clear
10:56 AM 34.9 °F 32.0 °F 24.1 °F 65% 30.52 in 10.0 mi SE 3.5 mph - N/A   Clear
11:56 AM 37.9 °F - 23.0 °F 55% 30.47 in 10.0 mi Calm Calm - N/A   Clear
12:56 PM 39.9 °F 37.8 °F 24.1 °F 53% 30.44 in 10.0 mi NNW 3.5 mph - N/A   Clear
1:56 PM 43.0 °F 41.3 °F 25.2 °F 49% 30.43 in 10.0 mi NE 3.5 mph - N/A   Clear
2:56 PM 41.9 °F - 24.1 °F 49% 30.43 in 10.0 mi Calm Calm - N/A   Clear
3:56 PM 41.0 °F - 25.2 °F 53% 30.45 in 10.0 mi Calm Calm - N/A   Clear
4:56 PM 36.0 °F - 24.1 °F 62% 30.44 in 10.0 mi Calm Calm - N/A   Clear
5:56 PM 30.0 °F - 24.1 °F 79% 30.43 in 10.0 mi Calm Calm - N/A   Clear
6:56 PM 27.1 °F - 23.0 °F 84% 30.44 in 10.0 mi Calm Calm - N/A   Clear
7:56 PM 27.1 °F - 24.1 °F 88% 30.43 in 10.0 mi Calm Calm - N/A   Clear
8:56 PM 27.1 °F - 25.2 °F 92% 30.42 in 10.0 mi Calm Calm - N/A   Clear
9:56 PM 26.1 °F - 23.0 °F 88% 30.41 in 10.0 mi Calm Calm - N/A   Clear
10:56 PM 24.1 °F - 23.0 °F 96% 30.42 in 10.0 mi Calm Calm - N/A   Clear
11:56 PM 22.1 °F - 21.0 °F 96% 30.40 in 9.0 mi Calm Calm - N/A   Clear